Location: Bidart
(43.4376°N, 1.5913°W)
Time: 12:12:21
(UTC+00:00)

USA 229 DEB - Pass Details

Date: 23 April 2026
Orbit: 844 x 1364 km, 63.4° (Epoch: 10 January)

Event Time Altitude Azimuth Distance (km) Brightness Sun altitude
Rises 22:23:16 0° 324° (NW) 3,924 7.9 -29.2°
Reaches altitude 10° 22:26:08 10° 334° (NNW) 3,044 7.0 -29.4°
Maximum altitude 22:32:49 35° 38° (NE) 1,885 5.1 -30.0°
Enters shadow 22:36:15 25° 81° (E) 2,319 5.3 -30.3°
